Location: Colebrook
(42.0017°N, 73.0973°W)
Time: 07:19:05
(UTC-04:00)

ISS - Pass Details

Date: 30 September 2021
Orbit: 417 x 423 km, 51.6° (Epoch: 16 October)

Event Time Altitude Azimuth Distance (km) Brightness Sun altitude
Rises 19:38:07 0° 308° (NW) 2,365 1.2 -12.5°
Reaches altitude 10° 19:40:29 10° 322° (NW) 1,500 -0.3 -12.9°
Maximum altitude 19:43:18 24° 19° (NNE) 918 -2.2 -13.5°
Enters shadow 19:44:41 18° 55° (NE) 1,090 -2.1 -13.7°
